Sarasota, FL

4:36 AM EDT on April 25, 2017 (GMT -0400)
Sarasota-bradenton

Weather History for KSRQ - November, 2013

Change the Weather History Date:

Wednesday, November 20, 2013

  Actual Average Record
Temperature  
Mean Temperature 76 °F 68 °F  
Max Temperature 84 °F 78 °F 88 °F (1998)
Min Temperature 67 °F 59 °F 38 °F (1916)
Degree Days  
Heating Degree Days 0 1  
Month to date heating degree days 2 10  
Since 1 July heating degree days 2 13  
Cooling Degree Days 11 4  
Month to date cooling degree days 183 117  
Year to date cooling degree days 3571 3261  
Growing Degree Days 25 (Base 50)    
Moisture  
Dew Point 67 °F    
Average Humidity 79    
Maximum Humidity 93    
Minimum Humidity 61    
Precipitation  
Precipitation 0.71 in 0.05 in 1.92 in (1952)
Month to date precipitation 0.99 1.29  
Year to date precipitation 52.10 49.84  
Sea Level Pressure  
Sea Level Pressure 30.01 in    
Wind  
Wind Speed 7 mph (ENE)    
Max Wind Speed 13 mph    
Max Gust Speed 16 mph    
Visibility 9 miles    
Events Rain    
T = Trace of Precipitation, MM = Missing Value Source: NWS Daily Summary

Daily Weather History Graph

Daily Weather History Graph

Search for Another Location

Airport or City:

Trip Planner

Search our weather history database for the weather conditions in past years. The results will help you decide how hot, cold, wet, or windy it might be!

Date:

Astronomy

Nov. 20, 2013 Rise Set
Actual Time 6:54 AM EST 5:36 PM EST
Civil Twilight 6:29 AM EST 6:01 PM EST
Nautical Twilight 6:01 AM EST 6:30 PM EST
Astronomical Twilight 5:33 AM EST 6:58 PM EST
Moon 8:18 PM EST (11/20) 9:18 AM EST (11/20)
Length of Visible Light 11h 31m
Length of Day
10h 42m
Waning Gibbous, 91% of the Moon is Illuminated
Nov 20
Waning Gibbous
Nov 25
Last Quarter
Dec 2
New
Dec 9
First Quarter
Dec 17
Full

Hourly Weather History & Observations

Time (EST) Temp. Heat Index Dew Point Humidity Pressure Visibility Wind Dir Wind Speed Gust Speed Precip Events Conditions
12:53 AM 69.1 °F - 63.0 °F 81% 29.95 in 10.0 mi ENE 6.9 mph - N/A   Mostly Cloudy
1:53 AM 69.1 °F - 63.0 °F 81% 29.96 in 10.0 mi NE 6.9 mph - N/A   Overcast
2:53 AM 68.0 °F - 63.0 °F 84% 29.96 in 10.0 mi NE 9.2 mph - N/A   Overcast
3:53 AM 68.0 °F - 63.0 °F 84% 29.96 in 10.0 mi ENE 8.1 mph - N/A   Overcast
4:53 AM 66.9 °F - 62.1 °F 84% 29.97 in 10.0 mi NNE 5.8 mph - N/A   Overcast
5:53 AM 66.9 °F - 62.1 °F 84% 29.98 in 10.0 mi NE 5.8 mph - N/A   Overcast
6:53 AM 66.9 °F - 62.1 °F 84% 29.99 in 10.0 mi NE 4.6 mph - N/A   Overcast
7:53 AM 68.0 °F - 63.0 °F 84% 30.01 in 10.0 mi ENE 5.8 mph - N/A   Overcast
8:53 AM 70.0 °F - 64.0 °F 81% 30.03 in 10.0 mi ENE 6.9 mph - N/A   Overcast
9:53 AM 73.9 °F - 66.0 °F 76% 30.04 in 10.0 mi East 4.6 mph - 0.00 in   Overcast
10:53 AM 78.1 °F - 68.0 °F 71% 30.04 in 10.0 mi East 3.5 mph - N/A   Mostly Cloudy
11:53 AM 82.9 °F 87.0 °F 70.0 °F 65% 30.02 in 10.0 mi Variable 4.6 mph - N/A   Partly Cloudy
12:53 PM 81.0 °F 84.1 °F 69.1 °F 67% 29.99 in 10.0 mi West 9.2 mph - N/A   Scattered Clouds
1:53 PM 84.0 °F 88.4 °F 70.0 °F 63% 29.97 in 10.0 mi North 6.9 mph - N/A   Overcast
2:53 PM 82.9 °F 85.8 °F 68.0 °F 60% 29.96 in 10.0 mi NE 4.6 mph - N/A   Overcast
3:53 PM 82.0 °F 85.9 °F 70.0 °F 67% 29.97 in 10.0 mi NW 4.6 mph - N/A   Overcast
4:53 PM 80.1 °F 82.9 °F 69.1 °F 69% 29.99 in 10.0 mi North 9.2 mph - N/A   Overcast
5:36 PM 77.0 °F - 69.8 °F 78% 30.00 in 10.0 mi SE 10.4 mph - N/A   Overcast
5:45 PM 75.2 °F - 71.6 °F 89% 30.01 in 2.5 mi ESE 8.1 mph - 0.10 in Rain Heavy Rain
5:53 PM 75.0 °F - 72.0 °F 90% 30.01 in 1.8 mi ESE 4.6 mph - 0.22 in Rain Heavy Rain
6:18 PM 73.4 °F - 71.6 °F 94% 30.02 in 3.0 mi NE 5.8 mph - 0.49 in Rain Light Rain
6:31 PM 73.4 °F - 71.6 °F 94% 30.02 in 10.0 mi ENE 6.9 mph - 0.49 in Rain Light Rain
6:53 PM 73.0 °F - 70.0 °F 90% 30.03 in 10.0 mi NE 8.1 mph - 0.49 in   Overcast
7:53 PM 73.0 °F - 70.0 °F 90% 30.04 in 10.0 mi ENE 9.2 mph - N/A   Overcast
8:53 PM 73.0 °F - 69.1 °F 87% 30.06 in 10.0 mi ENE 8.1 mph - N/A   Clear
9:53 PM 72.0 °F - 69.1 °F 91% 30.06 in 10.0 mi ENE 10.4 mph - N/A   Clear
10:53 PM 75.9 °F - 68.0 °F 76% 30.07 in 10.0 mi ENE 8.1 mph - N/A   Clear
11:53 PM 82.0 °F 84.9 °F 68.0 °F 62% 30.07 in 10.0 mi ENE 9.2 mph - N/A   Overcast